GW4079 Weather Reports


Display with metric or nautical units.
time (UTC)temp
F
wind
direction
speed
MPH
gust
MPH
rain 1hr
in
rain 24hr
in
rain mn
in
humidity
%
barometer
mb
20260505111555 33 38 0.0 2.0 0.00 0.00 0.00 62 1019.6
20260505110331 34 34 3.0 6.0 0.00 0.00 0.00 60 1019.6
20260505101611 34 61 1.0 3.0 0.00 0.00 0.00 61 1019.4
20260505100058 34 32 2.0 3.0 0.00 0.00 0.00 61 1019.6
20260505094543 34 32 0.0 1.0 0.00 0.00 0.00 61 1019.2
20260505093050 34 32 2.0 3.0 0.00 0.00 0.00 62 1019.4
20260505091600 34 32 1.0 3.0 0.00 0.00 0.00 61 1019.2
20260505090054 34 22 0.0 2.0 0.00 0.00 0.00 59 1019.1
20260505084555 35 22 2.0 4.0 0.00 0.00 0.00 59 1019.2
20260505083100 35 56 2.0 4.0 0.00 0.00 0.00 58 1019.3
20260505081604 36 56 1.0 4.0 0.00 0.00 0.00 57 1019.2
20260505080336 37 56 1.0 3.0 0.00 0.00 0.00 55 1018.9
20260505074550 37 56 1.0 3.0 0.00 0.00 0.00 55 1018.9
20260505073054 38 56 1.0 3.0 0.00 0.00 0.00 53 1018.8
20260505071556 38 56 1.0 3.0 0.00 0.00 0.00 52 1018.9
20260505070045 39 49 2.0 7.0 0.00 0.00 0.00 52 1018.9
20260505064552 38 41 3.0 4.0 0.00 0.00 0.00 53 1018.9
20260505063048 38 49 4.0 5.0 0.00 0.00 0.00 52 1018.8
20260505061556 39 36 2.0 9.0 0.00 0.00 0.00 51 1018.6
20260505060329 39 15 1.0 4.0 0.00 0.00 0.00 51 1018.6
20260505054549 38 59 2.0 8.0 0.00 0.00 0.00 52 1018.8
20260505053047 37 5 0.0 3.0 0.00 0.00 0.00 53 1018.6
20260505051611 36 336 2.0 5.0 0.00 0.00 0.00 54 1018.4
20260505041602 38 58 0.0 0.0 0.00 0.00 0.00 50 1018.4
20260505040111 40 55 2.0 4.0 0.00 0.00 0.00 48 1018.2
20260505034601 41 76 4.0 9.0 0.00 0.00 0.00 47 1018.0
20260505033109 42 65 8.0 13.0 0.00 0.00 0.00 45 1017.8
20260505031556 43 76 9.0 13.0 0.00 0.00 0.00 43 1017.4
20260505030124 44 72 12.0 16.0 0.00 0.00 0.00 42 1017.1
20260505024607 45 69 13.0 19.0 0.00 0.00 0.00 40 1017.1
20260505023059 46 71 14.0 23.0 0.00 0.00 0.00 37 1016.9
20260505021547 48 69 16.0 23.0 0.00 0.00 0.00 34 1016.5
20260505020121 49 62 15.0 22.0 0.00 0.00 0.00 32 1016.5
20260505014621 51 55 14.0 21.0 0.00 0.00 0.00 30 1016.1
20260505013059 52 51 19.0 24.0 0.00 0.00 0.00 26 1016.0
20260505011633 52 40 16.0 24.0 0.00 0.00 0.00 26 1016.0
20260505010119 53 49 16.0 27.0 0.00 0.00 0.00 26 1015.9
20260505004549 54 30 16.0 22.0 0.00 0.00 0.00 24 1015.8
20260505003046 54 19 18.0 24.0 0.00 0.00 0.00 22 1015.7
20260505001546 55 38 19.0 25.0 0.00 0.00 0.00 22 1015.7
20260505000106 55 360 20.0 30.0 0.00 0.00 0.00 22 1015.8
20260504234554 55 18 21.0 29.0 0.00 0.00 0.00 23 1015.6
20260504233103 55 30 20.0 28.0 0.00 0.00 0.00 23 1015.9
20260504231557 55 19 21.0 30.0 0.00 0.00 0.00 24 1015.9
20260504230104 54 14 18.0 28.0 0.00 0.00 0.00 24 1015.7
20260504224550 54 43 18.0 29.0 0.00 0.00 0.00 28 1015.8
20260504223052 55 18 17.0 30.0 0.00 0.00 0.00 27 1015.9
20260504221539 55 40 16.0 28.0 0.00 0.00 0.00 29 1015.8
20260504220050 55 24 17.0 30.0 0.00 0.00 0.00 30 1015.8
20260504214613 54 36 21.0 29.0 0.00 0.00 0.00 29 1015.9
20260504213113 52 19 19.0 24.0 0.00 0.00 0.00 30 1015.8
20260504211556 53 15 18.0 29.0 0.00 0.00 0.00 30 1016.1
20260504210058 53 360 16.0 29.0 0.00 0.00 0.00 29 1016.2
20260504204554 53 22 17.0 28.0 0.00 0.00 0.00 31 1016.2
20260504203107 56 40 20.0 31.0 0.00 0.00 0.00 30 1016.1
20260504201816 56 30 22.0 31.0 0.00 0.00 0.00 30 1015.7
20260504200049 54 25 20.0 29.0 0.00 0.00 0.00 32 1015.9
20260504194550 56 360 19.0 30.0 0.00 0.00 0.00 32 1015.8
20260504193052 55 28 21.0 27.0 0.00 0.00 0.00 34 1015.7
20260504191559 53 17 19.0 30.0 0.00 0.00 0.00 37 1015.9
20260504190117 53 11 17.0 29.0 0.00 0.00 0.00 36 1015.8
20260504184613 52 12 19.0 27.0 0.00 0.00 0.00 36 1016.0
20260504183052 52 11 13.0 24.0 0.00 0.00 0.00 36 1015.9
20260504181551 52 12 13.0 25.0 0.00 0.00 0.00 37 1016.1
20260504180316 53 39 13.0 21.0 0.00 0.00 0.00 36 1016.0
20260504174617 52 33 14.0 26.0 0.00 0.00 0.00 38 1016.1
20260504173120 52 5 17.0 23.0 0.00 0.00 0.00 41 1016.3
20260504171622 52 51 14.0 22.0 0.00 0.00 0.00 41 1016.1
20260504170120 52 5 10.0 18.0 0.00 0.00 0.00 45 1016.2
20260504160125 52 350 12.0 23.0 0.00 0.00 0.00 45 1015.9
20260504150309 49 352 15.0 19.0 0.00 0.00 0.00 55 1016.1
20260504140107 46 318 12.0 16.0 0.00 0.00 0.00 63 1016.2